N5DGC Weather Reports


Display with metric or nautical units.
time (UTC)temp
F
wind
direction
speed
MPH
gust
MPH
rain 1hr
in
rain 24hr
in
rain mn
in
humidity
%
barometer
mb
20260906232612 98 279 0.0 2.0 0.00 0.00 0.00 17 1235.9
20260906232111 98 15 0.0 2.0 0.00 0.00 0.00 17 1235.8
20260906231606 98 331 0.0 2.0 0.00 0.00 0.00 17 1235.8
20260906231101 98 201 0.0 2.0 0.00 0.00 0.00 17 1235.8
20260906230600 98 202 2.0 3.0 0.00 0.00 0.00 17 1235.9
20260906230055 97 312 2.0 3.0 0.00 0.00 0.00 17 1235.8
20260906225554 97 343 0.0 3.0 0.00 0.00 0.00 17 1235.8
20260906225050 98 223 2.0 4.0 0.00 0.00 0.00 17 1235.9
20260906224546 99 204 6.0 8.0 0.00 0.00 0.00 16 1236.0
20260906224042 98 307 0.0 4.0 0.00 0.00 0.00 17 1235.8
20260906223538 98 326 5.0 5.0 0.00 0.00 0.00 16 1235.6
20260906223037 98 212 2.0 6.0 0.00 0.00 0.00 17 1236.0
20260906222537 99 172 2.0 8.0 0.00 0.00 0.00 17 1236.0
20260906222034 100 191 5.0 5.0 0.00 0.00 0.00 16 1235.9
20260906221533 99 208 0.0 2.0 0.00 0.00 0.00 16 1236.0
20260906221029 97 203 0.0 2.0 0.00 0.00 0.00 17 1236.1
20260906220528 98 74 0.0 8.0 0.00 0.00 0.00 16 1236.2
20260906220024 100 359 2.0 4.0 0.00 0.00 0.00 16 1236.3
20260906215523 99 295 0.0 4.0 0.00 0.00 0.00 16 1236.3
20260906215021 98 313 3.0 5.0 0.00 0.00 0.00 16 1236.3
20260906214520 99 344 2.0 3.0 0.00 0.00 0.00 15 1236.7
20260906214015 101 44 0.0 4.0 0.00 0.00 0.00 15 1236.7
20260906213515 99 237 2.0 3.0 0.00 0.00 0.00 16 1236.7
20260906213015 99 207 2.0 4.0 0.00 0.00 0.00 15 1236.7
20260906212502 98 23 1.0 6.0 0.00 0.00 0.00 16 1236.9
20260906211958 99 50 0.0 2.0 0.00 0.00 0.00 15 1236.9
20260906211452 100 275 0.0 3.0 0.00 0.00 0.00 15 1237.2
20260906210948 99 311 0.0 4.0 0.00 0.00 0.00 15 1237.2
20260906210443 99 224 0.0 2.0 0.00 0.00 0.00 15 1237.3
20260906205941 99 319 4.0 4.0 0.00 0.00 0.00 15 1237.4
20260906205438 99 308 0.0 5.0 0.00 0.00 0.00 15 1237.4
20260906204934 97 344 1.0 2.0 0.00 0.00 0.00 15 1237.5
20260906204433 97 26 2.0 4.0 0.00 0.00 0.00 15 1237.9
20260906203932 97 12 1.0 4.0 0.00 0.00 0.00 16 1237.9
20260906203428 98 338 0.0 5.0 0.00 0.00 0.00 15 1237.9
20260906202925 98 328 2.0 4.0 0.00 0.00 0.00 15 1238.1
20260906202425 98 331 0.0 4.0 0.00 0.00 0.00 16 1238.0
20260906201920 98 333 0.0 2.0 0.00 0.00 0.00 16 1238.2
20260906201414 98 333 0.0 2.0 0.00 0.00 0.00 15 1238.1
20260906200909 98 274 1.0 2.0 0.00 0.00 0.00 15 1238.1
20260906200406 96 11 1.0 3.0 0.00 0.00 0.00 16 1238.2
20260906195905 96 62 0.0 4.0 0.00 0.00 0.00 16 1238.0
20260906195402 97 209 2.0 4.0 0.00 0.00 0.00 15 1238.1
20260906194858 96 222 1.0 3.0 0.00 0.00 0.00 16 1238.4
20260906194354 97 253 2.0 2.0 0.00 0.00 0.00 15 1238.1
20260906193854 98 41 0.0 3.0 0.00 0.00 0.00 15 1238.3
20260906193349 98 304 0.0 2.0 0.00 0.00 0.00 15 1238.3
20260906192845 97 212 0.0 1.0 0.00 0.00 0.00 16 1238.7
20260906192339 96 243 0.0 3.0 0.00 0.00 0.00 15 1238.9
20260906191838 97 103 0.0 2.0 0.00 0.00 0.00 15 1238.8
20260906191333 96 312 0.0 2.0 0.00 0.00 0.00 16 1238.9
20260906190833 96 68 0.0 2.0 0.00 0.00 0.00 15 1238.7
20260906190332 95 89 0.0 2.0 0.00 0.00 0.00 16 1238.9
20260906185833 95 29 1.0 2.0 0.00 0.00 0.00 16 1239.1
20260906185332 95 212 0.0 3.0 0.00 0.00 0.00 16 1239.0
20260906184826 94 76 1.0 4.0 0.00 0.00 0.00 16 1239.1
20260906184321 93 29 1.0 2.0 0.00 0.00 0.00 17 1239.6
20260906183817 93 352 2.0 4.0 0.00 0.00 0.00 17 1239.6
20260906183313 91 349 1.0 4.0 0.00 0.00 0.00 17 1239.5
20260906182813 92 10 2.0 4.0 0.00 0.00 0.00 17 1239.7
20260906182309 93 25 1.0 2.0 0.00 0.00 0.00 17 1239.6
20260906181809 93 195 0.0 4.0 0.00 0.00 0.00 16 1239.6
20260906181305 93 4 4.0 4.0 0.00 0.00 0.00 17 1239.8
20260906180800 92 345 0.0 3.0 0.00 0.00 0.00 18 1240.2
20260906180255 91 309 0.0 2.0 0.00 0.00 0.00 18 1240.3
20260906175752 92 30 2.0 2.0 0.00 0.00 0.00 19 1240.4
20260906175249 92 358 0.0 3.0 0.00 0.00 0.00 21 1240.1
20260906174746 90 331 0.0 2.0 0.00 0.00 0.00 22 1240.3
20260906174246 90 343 0.0 2.0 0.00 0.00 0.00 22 1240.3
20260906173747 90 333 1.0 4.0 0.00 0.00 0.00 23 1240.3
20260906173243 90 25 0.0 2.0 0.00 0.00 0.00 23 1240.5
20260906172742 90 40 0.0 2.0 0.00 0.00 0.00 24 1240.4
20260906172238 88 49 2.0 2.0 0.00 0.00 0.00 24 1240.4
20260906171738 88 316 0.0 2.0 0.00 0.00 0.00 25 1240.4
20260906171233 87 5 0.0 3.0 0.00 0.00 0.00 25 1240.5
20260906170729 86 55 0.0 5.0 0.00 0.00 0.00 26 1240.4
20260906170224 87 53 2.0 2.0 0.00 0.00 0.00 26 1240.7
20260906165721 86 26 2.0 3.0 0.00 0.00 0.00 26 1240.7
20260906165221 86 20 2.0 3.0 0.00 0.00 0.00 26 1240.7
20260906164720 86 45 0.0 3.0 0.00 0.00 0.00 26 1240.9
20260906164216 86 39 2.0 4.0 0.00 0.00 0.00 26 1240.7
20260906163712 87 18 2.0 4.0 0.00 0.00 0.00 25 1240.9
20260906163208 85 56 1.0 2.0 0.00 0.00 0.00 27 1240.8
20260906162704 84 54 2.0 4.0 0.00 0.00 0.00 27 1240.8
20260906162204 84 26 4.0 4.0 0.00 0.00 0.00 27 1241.0
20260906161659 86 10 3.0 5.0 0.00 0.00 0.00 26 1240.9
20260906161158 87 22 0.0 4.0 0.00 0.00 0.00 25 1240.8
20260906160657 85 345 0.0 4.0 0.00 0.00 0.00 26 1240.9
20260906160156 85 6 2.0 3.0 0.00 0.00 0.00 26 1240.8
20260906155654 85 68 1.0 2.0 0.00 0.00 0.00 26 1240.9
20260906155149 84 54 0.0 3.0 0.00 0.00 0.00 26 1240.8
20260906154645 84 71 2.0 4.0 0.00 0.00 0.00 27 1240.8
20260906154144 83 129 0.0 3.0 0.00 0.00 0.00 27 1240.8
20260906153643 82 23 1.0 5.0 0.00 0.00 0.00 28 1240.9
20260906153138 82 20 1.0 4.0 0.00 0.00 0.00 28 1240.9
20260906152633 82 27 6.0 6.0 0.00 0.00 0.00 28 1240.7
20260906152132 81 28 2.0 4.0 0.00 0.00 0.00 28 1240.8
20260906151627 80 10 2.0 4.0 0.00 0.00 0.00 29 1240.8
20260906151124 81 4 1.0 6.0 0.00 0.00 0.00 29 1240.8
20260906150619 80 29 2.0 3.0 0.00 0.00 0.00 29 1240.9
20260906150114 78 18 2.0 3.0 0.00 0.00 0.00 30 1240.9
20260906145613 77 24 2.0 4.0 0.00 0.00 0.00 31 1240.8
20260906145108 76 47 3.0 3.0 0.00 0.00 0.00 32 1240.7
20260906144602 75 318 0.0 2.0 0.00 0.00 0.00 34 1240.8
20260906144057 75 8 2.0 2.0 0.00 0.00 0.00 33 1240.9
20260906143552 75 322 0.0 0.0 0.00 0.00 0.00 33 1240.7
20260906143049 74 37 0.0 1.0 0.00 0.00 0.00 33 1240.5
20260906142548 74 343 0.0 0.0 0.00 0.00 0.00 34 1240.4
20260906142044 73 21 0.0 0.0 0.00 0.00 0.00 34 1240.7
20260906141543 73 166 0.0 2.0 0.00 0.00 0.00 34 1240.8
20260906141038 73 63 0.0 1.0 0.00 0.00 0.00 34 1240.4
20260906140537 74 87 0.0 2.0 0.00 0.00 0.00 33 1240.4
20260906140037 73 46 2.0 3.0 0.00 0.00 0.00 32 1240.2
20260906135534 72 42 2.0 3.0 0.00 0.00 0.00 33 1240.3
20260906135030 72 48 2.0 4.0 0.00 0.00 0.00 34 1240.3
20260906134525 71 38 2.0 3.0 0.00 0.00 0.00 34 1240.2
20260906134020 70 326 2.0 3.0 0.00 0.00 0.00 35 1240.1
20260906133516 69 31 1.0 3.0 0.00 0.00 0.00 35 1240.1
20260906133011 69 339 0.0 2.0 0.00 0.00 0.00 36 1240.1
20260906132506 68 26 0.0 3.0 0.00 0.00 0.00 36 1239.8
20260906132001 68 76 0.0 2.0 0.00 0.00 0.00 37 1240.0
20260906131457 68 72 1.0 2.0 0.00 0.00 0.00 36 1240.0
20260906130952 68 26 0.0 2.0 0.00 0.00 0.00 36 1240.2
20260906130452 68 55 1.0 2.0 0.00 0.00 0.00 37 1239.8
20260906125952 68 69 2.0 4.0 0.00 0.00 0.00 36 1240.0
20260906125449 68 359 2.0 4.0 0.00 0.00 0.00 36 1240.1
20260906124949 68 328 0.0 2.0 0.00 0.00 0.00 37 1239.8
20260906124445 67 324 0.0 1.0 0.00 0.00 0.00 38 1239.7
20260906123945 67 62 1.0 1.0 0.00 0.00 0.00 38 1239.8
20260906123445 67 63 1.0 2.0 0.00 0.00 0.00 38 1240.0
20260906122944 67 50 2.0 2.0 0.00 0.00 0.00 38 1239.8
20260906122439 68 69 0.0 1.0 0.00 0.00 0.00 39 1239.8
20260906121936 68 95 0.0 1.0 0.00 0.00 0.00 38 1239.7
20260906121432 69 89 0.0 2.0 0.00 0.00 0.00 38 1240.0
20260906120928 69 119 0.0 2.0 0.00 0.00 0.00 37 1239.8
20260906120423 69 58 1.0 2.0 0.00 0.00 0.00 37 1239.7
20260906115919 68 0 0.0 2.0 0.00 0.00 0.00 39 1239.6
20260906115415 69 76 0.0 1.0 0.00 0.00 0.00 40 1239.6
20260906114914 69 50 0.0 1.0 0.00 0.00 0.00 39 1239.8
20260906114409 70 79 1.0 1.0 0.00 0.00 0.00 39 1239.8
20260906113905 70 50 0.0 1.0 0.00 0.00 0.00 36 1239.7
20260906113403 71 37 0.0 1.0 0.00 0.00 0.00 37 1239.7
20260906112859 70 30 2.0 2.0 0.00 0.00 0.00 37 1239.8
20260906112355 70 82 1.0 1.0 0.00 0.00 0.00 38 1239.5
20260906111855 71 103 0.0 1.0 0.00 0.00 0.00 38 1239.8
20260906111355 71 62 0.0 0.0 0.00 0.00 0.00 38 1239.7
20260906110850 71 342 0.0 0.0 0.00 0.00 0.00 37 1239.8
20260906110346 71 62 0.0 0.0 0.00 0.00 0.00 37 1239.4
20260906105844 71 69 0.0 1.0 0.00 0.00 0.00 36 1239.7
20260906105340 71 38 0.0 0.0 0.00 0.00 0.00 37 1239.6
20260906104836 71 37 0.0 0.0 0.00 0.00 0.00 37 1239.7
20260906104334 71 55 0.0 0.0 0.00 0.00 0.00 37 1239.7
20260906103833 72 66 0.0 0.0 0.00 0.00 0.00 37 1239.6
20260906103332 72 66 0.0 0.0 0.00 0.00 0.00 37 1239.6
20260906102828 72 71 0.0 1.0 0.00 0.00 0.00 36 1239.4
20260906102327 73 38 0.0 0.0 0.00 0.00 0.00 35 1239.4
20260906101822 73 0 0.0 1.0 0.00 0.00 0.00 34 1239.5
20260906101317 73 347 0.0 1.0 0.00 0.00 0.00 34 1239.3
20260906100813 73 50 0.0 1.0 0.00 0.00 0.00 33 1239.4
20260906100312 73 37 1.0 2.0 0.00 0.00 0.00 33 1239.4
20260906095807 73 50 0.0 1.0 0.00 0.00 0.00 34 1239.4
20260906095305 74 62 0.0 2.0 0.00 0.00 0.00 33 1239.4
20260906094801 74 345 0.0 2.0 0.00 0.00 0.00 32 1239.3
20260906094256 74 309 0.0 2.0 0.00 0.00 0.00 32 1239.1
20260906093753 74 324 2.0 2.0 0.00 0.00 0.00 32 1239.0
20260906093248 74 322 2.0 3.0 0.00 0.00 0.00 32 1239.1
20260906092743 75 336 1.0 3.0 0.00 0.00 0.00 32 1239.3
20260906092238 75 321 2.0 3.0 0.00 0.00 0.00 32 1239.0
20260906091734 75 326 4.0 4.0 0.00 0.00 0.00 32 1238.9
20260906091230 75 329 3.0 3.0 0.00 0.00 0.00 31 1239.0
20260906090726 75 301 4.0 5.0 0.00 0.00 0.00 31 1239.0
20260906090225 75 3 2.0 5.0 0.00 0.00 0.00 31 1239.1
20260906085724 75 1 2.0 5.0 0.00 0.00 0.00 31 1239.0
20260906085223 75 319 1.0 3.0 0.00 0.00 0.00 31 1239.0
20260906084719 75 23 2.0 4.0 0.00 0.00 0.00 32 1239.0
20260906084218 75 19 1.0 2.0 0.00 0.00 0.00 32 1238.9
20260906083714 75 297 0.0 3.0 0.00 0.00 0.00 32 1239.1
20260906083209 75 333 0.0 2.0 0.00 0.00 0.00 32 1239.0
20260906082704 76 314 2.0 4.0 0.00 0.00 0.00 32 1239.3
20260906082159 76 332 2.0 4.0 0.00 0.00 0.00 32 1239.1
20260906081655 75 359 2.0 3.0 0.00 0.00 0.00 32 1239.5
20260906081150 75 349 2.0 2.0 0.00 0.00 0.00 33 1239.4
20260906080646 75 6 0.0 2.0 0.00 0.00 0.00 33 1239.4
20260906080142 75 331 2.0 2.0 0.00 0.00 0.00 33 1239.5
20260906075642 74 342 1.0 2.0 0.00 0.00 0.00 34 1239.5
20260906075136 74 342 1.0 2.0 0.00 0.00 0.00 34 1239.7
20260906074632 74 333 0.0 1.0 0.00 0.00 0.00 35 1239.7
20260906074131 74 333 0.0 1.0 0.00 0.00 0.00 35 1239.5
20260906073626 74 15 0.0 1.0 0.00 0.00 0.00 35 1239.7
20260906073121 74 50 0.0 0.0 0.00 0.00 0.00 35 1239.5
20260906072616 74 57 0.0 1.0 0.00 0.00 0.00 34 1239.7
20260906072113 74 307 2.0 2.0 0.00 0.00 0.00 35 1239.7
20260906071609 74 333 0.0 1.0 0.00 0.00 0.00 35 1239.7
20260906071109 74 36 2.0 2.0 0.00 0.00 0.00 35 1239.8
20260906070606 75 343 0.0 0.0 0.00 0.00 0.00 34 1239.6
20260906070101 75 75 0.0 2.0 0.00 0.00 0.00 33 1239.7
20260906065600 76 333 0.0 0.0 0.00 0.00 0.00 32 1239.6
20260906065056 77 32 0.0 2.0 0.00 0.00 0.00 32 1239.6
20260906064552 76 33 3.0 4.0 0.00 0.00 0.00 32 1239.6
20260906064046 75 309 2.0 3.0 0.00 0.00 0.00 33 1239.6
20260906063541 74 351 1.0 2.0 0.00 0.00 0.00 34 1239.6
20260906063038 75 138 1.0 1.0 0.00 0.00 0.00 35 1239.6
20260906062532 75 142 0.0 1.0 0.00 0.00 0.00 34 1239.4
20260906062027 75 147 0.0 2.0 0.00 0.00 0.00 34 1239.3
20260906061523 75 37 0.0 1.0 0.00 0.00 0.00 34 1239.1
20260906061022 76 60 0.0 0.0 0.00 0.00 0.00 33 1239.3
20260906060519 76 25 0.0 1.0 0.00 0.00 0.00 32 1239.3
20260906060016 77 324 2.0 2.0 0.00 0.00 0.00 31 1239.1
20260906055511 77 32 1.0 5.0 0.00 0.00 0.00 31 1239.1
20260906055007 77 292 4.0 4.0 0.00 0.00 0.00 31 1238.9
20260906054507 77 329 4.0 6.0 0.00 0.00 0.00 30 1238.9
20260906054002 77 325 5.0 8.0 0.00 0.00 0.00 30 1238.9
20260906053459 77 31 2.0 6.0 0.00 0.00 0.00 30 1238.9
20260906052954 77 325 2.0 6.0 0.00 0.00 0.00 30 1239.0
20260906052450 78 310 4.0 5.0 0.00 0.00 0.00 30 1239.0
20260906051947 78 325 3.0 7.0 0.00 0.00 0.00 30 1239.0
20260906051442 78 35 0.0 6.0 0.00 0.00 0.00 30 1238.8
20260906050937 78 310 3.0 6.0 0.00 0.00 0.00 30 1238.9
20260906050437 78 314 4.0 7.0 0.00 0.00 0.00 30 1239.1
20260906045936 77 359 2.0 5.0 0.00 0.00 0.00 30 1238.9
20260906045435 77 334 2.0 5.0 0.00 0.00 0.00 31 1238.7
20260906044932 77 309 3.0 4.0 0.00 0.00 0.00 31 1238.7
20260906044432 77 322 3.0 5.0 0.00 0.00 0.00 31 1238.8
20260906043927 77 351 2.0 5.0 0.00 0.00 0.00 31 1238.8
20260906043423 77 320 2.0 2.0 0.00 0.00 0.00 31 1238.9
20260906042919 77 327 1.0 3.0 0.00 0.00 0.00 31 1238.9
20260906042418 77 318 2.0 4.0 0.00 0.00 0.00 31 1238.7
20260906041913 77 337 3.0 4.0 0.00 0.00 0.00 31 1239.0
20260906041409 78 351 0.0 3.0 0.00 0.00 0.00 30 1238.9
20260906040908 78 296 0.0 4.0 0.00 0.00 0.00 30 1239.0
20260906040404 78 344 1.0 3.0 0.00 0.00 0.00 30 1238.9
20260906035900 78 331 2.0 4.0 0.00 0.00 0.00 30 1239.0
20260906035355 78 1 2.0 3.0 0.00 0.00 0.00 30 1238.9
20260906034850 78 319 1.0 3.0 0.00 0.00 0.00 30 1239.0
20260906034350 78 39 0.0 2.0 0.00 0.00 0.00 30 1238.9
20260906033846 78 43 2.0 2.0 0.00 0.00 0.00 30 1238.8
20260906033345 78 346 1.0 2.0 0.00 0.00 0.00 30 1238.9
20260906032841 78 37 0.0 1.0 0.00 0.00 0.00 30 1238.6
20260906032337 79 297 0.0 2.0 0.00 0.00 0.00 30 1238.7
20260906031832 80 45 0.0 1.0 0.00 0.00 0.00 29 1238.6
20260906031327 80 341 1.0 2.0 0.00 0.00 0.00 29 1238.6
20260906030827 80 37 0.0 4.0 0.00 0.00 0.00 28 1238.4
20260906030323 81 331 0.0 3.0 0.00 0.00 0.00 28 1238.2
20260906025823 81 345 1.0 3.0 0.00 0.00 0.00 28 1238.4
20260906025317 81 329 1.0 4.0 0.00 0.00 0.00 28 1238.2
20260906024816 82 17 2.0 4.0 0.00 0.00 0.00 28 1238.1
20260906024315 82 298 1.0 4.0 0.00 0.00 0.00 27 1238.1
20260906023811 82 346 1.0 4.0 0.00 0.00 0.00 27 1238.2
20260906023306 83 312 2.0 4.0 0.00 0.00 0.00 27 1238.1
20260906022802 83 326 0.0 6.0 0.00 0.00 0.00 27 1238.0
20260906022257 83 337 3.0 4.0 0.00 0.00 0.00 27 1238.1
20260906021753 83 6 1.0 6.0 0.00 0.00 0.00 27 1238.1
20260906021251 84 320 5.0 6.0 0.00 0.00 0.00 27 1237.9
20260906020746 84 321 2.0 4.0 0.00 0.00 0.00 28 1238.0
20260906020246 84 27 0.0 3.0 0.00 0.00 0.00 27 1237.6
20260906015741 84 333 1.0 4.0 0.00 0.00 0.00 28 1237.7
20260906015240 85 342 0.0 4.0 0.00 0.00 0.00 27 1237.6
20260906014740 85 352 1.0 2.0 0.00 0.00 0.00 28 1237.6
20260906014235 85 318 0.0 2.0 0.00 0.00 0.00 28 1237.7
20260906013731 85 315 2.0 6.0 0.00 0.00 0.00 29 1237.6
20260906013231 85 343 0.0 1.0 0.00 0.00 0.00 30 1237.6
20260906012726 86 37 0.0 1.0 0.00 0.00 0.00 30 1237.6
20260906012221 86 235 0.0 0.0 0.00 0.00 0.00 29 1237.6
20260906011717 87 50 0.0 0.0 0.00 0.00 0.00 29 1237.5
20260906011211 87 10 0.0 1.0 0.00 0.00 0.00 28 1237.6
20260906010707 87 69 0.0 2.0 0.00 0.00 0.00 28 1237.6
20260906010203 87 44 0.0 1.0 0.00 0.00 0.00 28 1237.4
20260906005703 88 10 0.0 2.0 0.00 0.00 0.00 27 1237.5
20260906005202 88 331 1.0 3.0 0.00 0.00 0.00 27 1237.5
20260906004701 88 287 1.0 3.0 0.00 0.00 0.00 27 1237.5
20260906004156 89 353 2.0 3.0 0.00 0.00 0.00 27 1237.7
20260906003652 89 318 4.0 6.0 0.00 0.00 0.00 26 1237.7
20260906003148 89 347 0.0 2.0 0.00 0.00 0.00 26 1237.9
20260906002647 89 330 1.0 5.0 0.00 0.00 0.00 26 1237.7
20260906002142 90 94 2.0 3.0 0.00 0.00 0.00 26 1237.7
20260906001638 90 259 3.0 7.0 0.00 0.00 0.00 26 1237.6
20260906001137 90 346 3.0 5.0 0.00 0.00 0.00 25 1237.7
20260906000633 91 312 5.0 6.0 0.00 0.00 0.00 25 1237.6
20260906000128 91 326 3.0 4.0 0.00 0.00 0.00 24 1237.6
20260905235627 91 348 2.0 7.0 0.00 0.00 0.00 25 1237.6
20260905235123 92 335 3.0 8.0 0.00 0.00 0.00 24 1237.5
20260905234618 94 348 2.0 3.0 0.00 0.00 0.00 23 1237.5
20260905234114 94 258 1.0 8.0 0.00 0.00 0.00 23 1237.6
20260905233613 94 334 3.0 5.0 0.00 0.00 0.00 23 1237.2
20260905233108 92 285 0.0 2.0 0.00 0.00 0.00 25 1237.4